Starlink 31819

operational
NORAD ID: 59738 Int'l Des: 2024-090 Owner: SPXS Country: US Constellation: starlink
LEOCIRCULAR

Über Starlink 31819

Beschreibung wird geladen...

Live-Position

3D-Globus wird geladen...

Nächste Überflüge

Höhenverlauf

Altitude vs Time

uPlot chart will show altitude changes over time

Zweizeiliger Elementsatz

1 59738U 24090J 26034.32124519 .00004236 00000-0 16253-3 0 9994
2 59738 43.0042 17.6149 0000869 274.0901 85.9851 15.27747703 98186
Epoch: 3. Feb. 2026 • Age: 9 hours

Aktueller Status

Höhe 488.9 km
Geschwindigkeit 7.62 km/s
Subsatellitenpunkt -26.49°S, 153.97°W
Startdatum 13. Mai 2024
Alter 1.7 years
Typ internet

Technische Details

Klassifizierung Payload
Masse 730.00 kg
Trockenmasse 700.00 kg
Gesamtmasse 730.00 kg
Länge 0.30 m
Durchmesser 4.10 m
Spannweite 29.00 m
Form Box + pan
Hersteller SPXS
Bus-Typ Starlink V2M
Phasenstatus In Orbit
Besitzer/Staat SPXS/US

Große Konstellationen

Loading constellations...